STARLINK-1711 (46374 NORAD) Tracking and Keplerian Element Data

This shows tracking and keplerian element data for the satellite.

Feedback or suggestion? Click here.




ElementValue
Catalog46374
NameSTARLINK-1711
Epoch Orbit186
Epoch Day336.91667824
Epoch Year2020
RAAN351.5024
Inclination52.9969
Eccentricity0.0002275
Argument of Perigee20.2265
Mean Anonmoly301.5606
Mean Motion15.62753661
Decay Rate0.00035675
L11 46374U 20062BB 20336.91667824 .00035675 00000-0 39370-3 0 9992
L22 46374 52.9969 351.5024 0002275 20.2265 301.5606 15.62753661 1867

Live tracking and technical data element details for STARLINK-1711 (NORAD 46374). STARLINK-1711 can be tracked NOW for your location showing map with azimuth and elevation plus other details from your city location.

Track the satellite on the map from your city or location and see movement details for azimuth, elevation, latitude, longitude, range, height, and movement on the map or in text.







IsCatalogInMostPopularTable: catalog: 46374, numindb: 26
Update: records affected: 1



GetName: 46374 STARLINK-1711

Hit Count: updated at: Wed, 02 Dec 2020 19:04:38 GMT